GFSNE_con_lsi_273.txt.gz
Lid_Strength_Index
3 1 2 2 3 2 1 2 4 6 5 3 3 1 0 -0 1 1 2 1 1 2 2 2 1 1 2 3 5 6 7 6 4 5 5 3 2 1
1 1 2 3 3 3 3 2 2 4 5 3 3 2 1 1 -0 1 2 1 2 3 2 3 3 2 3 4 5 7 7 5 5 6 5 3 3 2
2 2 1 2 3 4 3 3 3 2 4 3 2 2 2 2 2 2 2 2 3 3 2 3 4 3 4 5 6 7 7 6 6 6 5 4 3 2
4 4 3 2 2 2 3 4 4 2 3 4 3 2 2 3 2 2 2 2 3 2 3 4 5 5 5 6 6 7 7 6 7 6 6 6 4 3
5 5 5 4 3 2 3 4 5 3 3 3 3 2 2 2 2 2 2 2 2 2 3 4 5 5 5 6 6 7 8 8 8 7 7 6 5 4
5 5 5 5 5 3 3 3 4 4 5 5 5 3 2 2 2 3 3 2 3 2 3 4 5 5 5 6 6 6 7 9 8 7 7 7 7 6
5 5 5 4 2 2 3 3 4 4 5 7 6 4 3 3 3 3 3 3 2 3 4 6 7 7 7 6 6 6 7 9 8 8 8 7 8 7
7 5 5 3 3 3 2 2 2 4 5 6 7 7 5 3 2 3 4 5 5 2 3 5 6 8 7 8 7 7 7 9 8 8 7 8 8 8
6 6 5 3 3 3 3 2 2 2 3 5 5 6 5 3 2 2 3 4 4 2 2 3 6 6 6 6 7 7 8 8 8 8 8 8 9 8
6 6 5 4 4 4 4 4 4 3 3 3 4 5 6 4 1 1 2 2 2 2 1 4 5 6 8 7 7 7 8 9 8 8 8 8 9 8
6 5 5 5 6 7 4 4 4 5 4 5 6 8 8 8 7 2 3 3 4 3 1 3 4 7 9 10 9 8 8 9 9 8 8 9 8 7
7 7 6 7 7 7 7 6 7 7 7 7 6 7 7 7 6 4 4 4 3 4 2 3 3 5 7 9 11 9 9 8 9 9 8 8 8 6
7 8 7 7 7 8 7 8 8 8 8 8 7 7 6 6 5 6 4 2 3 3 2 2 3 4 5 10 11 11 9 10 9 9 9 9 8 6
7 6 6 7 7 7 8 8 8 8 9 9 9 8 7 6 5 5 2 2 1 2 2 1 2 3 5 9 9 9 9 9 8 9 9 9 9 9
6 6 6 7 7 8 8 8 8 9 10 10 9 8 7 5 5 5 4 2 1 1 1 1 1 3 3 5 8 8 8 9 7 7 8 6 6 6
6 6 6 7 7 7 8 8 8 8 8 9 8 8 7 6 6 5 5 4 4 4 1 1 1 2 3 3 5 6 6 8 6 6 7 6 6 7
7 7 8 8 8 9 8 8 8 6 7 7 7 7 7 7 7 6 5 4 5 4 3 3 2 2 4 3 5 5 5 5 4 5 9 8 7 7
8 9 9 9 9 9 9 9 8 7 7 6 6 7 7 7 7 6 5 5 4 4 4 3 4 5 5 5 5 5 5 5 4 6 8 9 9 9
9 9 9 9 9 9 9 9 9 8 7 7 6 6 6 6 7 6 6 4 4 4 4 4 4 4 5 7 8 9 4 5 5 7 9 9 9 9
9 9 9 9 9 9 9 9 8 8 8 7 7 6 6 6 6 6 5 4 4 3 3 3 3 3 4 7 8 8 10 4 5 7 10 11 12 11
9 9 9 9 9 9 8 8 8 8 7 7 7 6 6 6 6 6 5 8 6 3 4 3 2 8 5 5 6 9 8 9 5 6 9 9 10 10
9 9 9 9 9 9 8 8 8 8 8 7 7 7 6 6 6 7 6 4 3 2 3 4 3 3 4 4 7 9 9 9 9 9 9 9 8 10
10 9 9 9 8 8 8 8 8 8 8 8 8 7 7 7 6 6 5 4 3 2 3 4 3 2 4 4 7 8 9 8 7 9 10 10 9 9

GFSNE_con_lsi_276.txt.gz
Lid_Strength_Index
2 3 3 2 2 1 1 2 4 6 5 3 3 1 0 0 -0 0 1 1 2 2 2 2 1 1 1 1 3 5 6 6 5 4 4 3 3 2
3 4 4 3 2 2 2 2 2 4 6 3 2 1 0 -0 -0 0 1 1 2 2 3 2 2 3 2 3 4 5 7 6 5 5 4 4 4 3
5 5 5 5 4 3 2 3 4 3 4 3 1 1 1 1 1 1 1 2 2 3 3 3 3 4 4 4 5 5 6 6 6 5 5 5 5 2
6 6 6 5 6 5 3 4 4 3 3 4 2 2 2 2 2 1 1 1 2 3 3 3 4 5 5 5 6 6 7 6 7 6 6 6 5 3
6 6 6 6 7 7 5 5 4 3 4 3 4 1 2 2 2 2 2 2 2 2 3 4 4 5 6 5 6 7 8 8 7 7 7 7 6 4
6 6 6 6 6 7 5 5 4 4 5 4 4 3 2 1 2 3 3 2 2 2 2 4 4 5 5 6 6 6 7 9 8 8 8 8 8 6
7 6 6 5 2 3 4 5 5 5 5 5 5 5 4 4 3 3 3 3 2 2 3 5 5 6 6 6 6 5 6 8 8 8 8 9 9 8
8 7 6 4 4 2 2 1 3 5 5 5 6 6 5 4 3 3 3 4 4 2 3 5 5 7 8 8 7 7 7 8 8 8 8 9 9 8
8 8 7 5 5 5 4 3 3 2 1 2 4 3 5 5 5 5 2 3 3 2 2 4 5 6 7 7 7 7 7 8 8 8 9 9 9 9
8 8 7 7 6 6 5 4 4 5 4 3 4 4 5 6 6 5 5 3 2 2 1 4 5 6 6 7 7 7 8 8 8 8 9 9 10 9
6 7 7 7 7 7 7 7 6 5 5 5 5 6 6 7 7 5 5 4 5 3 2 2 5 7 9 10 9 7 9 8 8 9 9 9 9 9
6 6 6 7 7 7 7 8 8 7 8 8 8 7 7 6 5 6 5 5 5 4 2 3 4 6 9 10 10 10 10 8 8 9 9 9 9 7
6 7 6 6 7 7 7 7 8 8 8 9 9 9 8 7 6 6 5 4 5 4 1 2 4 5 7 11 11 11 11 8 8 9 9 9 9 8
7 6 6 7 7 7 8 8 8 8 9 10 10 10 9 8 7 5 5 4 3 3 1 1 2 4 7 9 10 11 11 9 7 7 8 9 9 9
6 6 7 7 7 7 7 7 7 9 10 10 10 10 9 8 7 6 4 4 5 3 1 2 2 2 4 6 9 10 10 10 6 7 8 7 6 6
6 7 6 7 7 7 7 7 8 9 8 8 9 9 8 8 8 7 7 5 6 5 3 2 2 2 4 5 6 8 8 10 6 6 5 6 7 8
7 7 8 8 9 8 8 8 8 8 9 7 7 7 8 8 8 7 6 5 5 6 5 3 4 3 3 4 6 7 8 8 5 6 6 7 8 8
8 9 9 9 9 9 9 9 8 8 9 8 7 7 7 8 8 7 7 7 6 6 5 4 4 5 5 5 6 6 6 7 5 6 7 8 9 9
9 9 9 9 9 9 9 9 9 8 8 9 8 7 7 6 7 8 7 7 5 5 5 3 4 4 6 7 7 8 5 6 6 7 7 9 9 9
8 9 9 9 9 9 8 9 9 8 8 8 8 7 7 7 7 6 7 7 6 5 4 3 4 5 5 7 7 8 10 5 6 8 10 11 12 11
10 9 8 9 9 8 8 8 8 8 8 8 7 7 6 7 7 6 5 9 8 5 6 4 3 10 6 5 7 8 8 9 6 7 9 9 10 10
11 10 9 9 8 9 9 8 8 8 8 7 7 7 7 7 7 7 6 6 7 4 5 3 4 5 5 5 7 9 10 10 9 9 9 9 8 9
12 11 10 9 9 9 9 8 8 8 7 7 7 7 7 7 6 6 6 6 6 4 3 3 3 4 5 5 7 8 10 9 8 8 10 9 8 8

GFSNE_con_lsi_279.txt.gz
Lid_Strength_Index
5 5 5 5 4 3 3 3 4 6 5 3 3 1 0 -0 -0 -0 0 1 1 2 3 2 2 1 1 0 1 2 4 6 5 5 4 3 2 3
6 7 7 7 6 5 4 4 4 3 5 3 2 1 1 0 -0 -0 0 0 1 2 2 3 2 2 3 2 3 4 5 5 5 6 4 4 4 3
7 7 7 7 8 7 6 5 5 5 5 4 2 2 1 1 0 1 0 1 1 2 2 2 3 3 4 4 4 5 5 5 6 6 5 5 4 3
7 8 8 6 8 8 8 7 6 5 5 5 4 4 3 1 1 2 1 1 2 2 2 3 4 4 5 5 5 6 6 6 7 6 6 5 5 4
8 8 8 8 8 8 8 7 6 5 5 5 5 4 2 1 2 2 2 2 1 2 3 3 4 4 5 6 6 6 7 8 7 7 7 7 6 5
8 8 8 7 8 7 7 7 6 7 6 6 6 6 4 1 1 2 3 2 2 2 3 3 4 4 5 6 6 6 7 8 8 8 8 8 8 7
8 8 7 6 4 4 5 6 6 6 6 6 6 6 6 5 5 4 3 2 2 2 4 4 5 5 5 5 6 5 7 8 7 8 8 8 9 9
9 9 8 6 5 5 4 3 3 6 6 6 6 5 5 6 6 6 3 3 4 2 3 4 5 6 6 5 6 6 7 7 7 7 8 9 9 9
9 9 8 5 7 7 5 4 4 3 3 4 5 4 5 6 7 8 7 5 5 2 2 4 5 5 5 6 7 7 7 8 7 7 8 9 9 9
7 7 7 8 8 7 7 7 7 5 5 5 5 6 5 6 6 6 6 5 3 2 2 4 5 5 5 6 7 8 8 8 8 8 8 9 10 10
7 6 6 7 7 7 7 7 7 6 5 5 5 6 7 7 6 6 6 6 6 5 2 3 4 7 7 7 8 8 8 9 8 8 9 9 10 10
7 7 6 6 7 7 8 7 8 8 9 8 8 8 8 8 6 5 6 7 6 6 3 3 5 6 8 9 9 9 9 8 8 8 8 8 8 7
8 8 7 7 7 7 7 8 7 8 9 9 9 9 9 9 9 8 6 5 6 5 3 2 3 4 6 9 9 9 10 9 8 8 8 9 9 8
7 6 6 7 7 7 7 8 8 7 9 10 10 10 10 9 9 8 6 5 3 5 4 3 4 4 6 8 9 10 11 9 8 8 8 8 9 9
6 6 6 7 7 7 7 7 7 10 10 10 10 10 9 8 8 8 7 6 5 4 3 3 3 3 4 6 8 10 10 10 7 7 7 7 7 7
7 7 6 7 6 6 7 7 7 8 8 9 9 9 8 9 8 8 9 8 7 5 3 2 1 1 3 4 6 9 8 11 8 7 6 6 7 8
8 8 8 7 8 8 8 8 8 8 8 8 9 8 6 7 7 8 8 8 7 6 5 3 3 2 3 4 6 7 8 9 6 6 6 7 8 8
10 9 9 8 7 8 8 8 8 8 8 8 8 8 7 7 7 7 8 8 8 6 5 5 4 5 5 5 5 6 7 8 6 6 6 8 8 9
11 10 9 8 8 8 8 8 8 8 7 8 8 8 8 7 7 6 8 8 7 6 5 5 4 5 6 7 6 7 8 6 6 7 7 7 8 9
11 11 10 9 8 8 9 8 8 8 8 8 8 8 8 7 7 7 6 8 8 5 5 3 3 4 5 6 7 7 10 6 6 7 10 10 11 10
11 11 10 10 9 8 8 8 8 8 8 8 7 7 7 7 7 7 6 9 8 7 6 6 2 8 5 6 7 8 8 8 6 7 9 10 10 10
12 12 11 11 10 9 8 8 8 8 8 8 8 7 7 7 7 7 7 7 7 7 7 5 3 4 4 6 8 9 10 10 10 10 10 9 8 9
12 12 12 12 11 10 9 8 8 8 8 7 7 7 7 7 6 6 6 6 6 7 7 6 3 3 4 6 8 9 10 9 8 9 11 10 9 8

GFSNE_con_lsi_285.txt.gz
Lid_Strength_Index
2 2 3 3 3 3 3 3 4 5 4 2 1 -1 -1 -0 -0 -1 -1 -0 -0 1 2 2 1 1 1 1 0 1 1 2 2 3 3 3 3 2
2 3 3 3 3 4 4 4 4 4 5 2 2 0 -1 -1 -1 -1 -1 -0 -0 1 1 2 2 1 2 2 3 3 3 2 3 4 4 3 3 3
2 3 3 3 5 5 4 4 5 4 5 4 3 1 0 -0 -1 -2 -1 -1 -1 1 1 2 3 3 3 4 4 4 3 3 4 4 4 4 4 4
4 4 4 5 4 4 4 4 4 3 5 5 3 3 1 -0 -1 -1 -0 -0 -0 0 2 3 3 4 4 5 6 5 4 4 5 5 5 5 5 4
4 5 5 5 5 5 4 4 4 4 3 4 4 3 2 0 -0 -1 -1 -1 -1 0 2 2 3 3 5 6 6 6 5 6 6 6 6 6 5 5
5 5 5 5 5 4 4 3 3 3 3 4 4 3 2 0 0 1 1 -0 0 -1 1 2 3 3 4 5 6 6 7 7 7 7 7 7 7 7
5 5 5 6 6 6 5 4 4 4 4 3 3 3 3 2 2 2 1 1 1 1 1 2 3 2 4 5 6 6 7 7 7 7 7 8 8 8
6 5 5 6 5 6 6 6 5 4 3 4 4 4 3 3 2 3 2 2 3 -1 3 1 1 4 4 4 6 7 7 7 7 7 8 8 9 9
6 5 5 5 5 5 5 5 4 4 5 3 5 5 4 3 3 3 3 3 2 0 1 2 2 4 3 3 6 7 8 8 8 7 8 8 9 9
6 5 4 4 4 4 4 4 4 3 2 4 4 4 5 5 5 4 3 3 2 0 -1 3 1 3 4 4 6 7 8 9 8 8 8 9 9 9
5 4 4 4 5 6 5 5 5 4 3 5 6 6 6 7 6 5 4 5 4 2 -0 1 1 4 6 6 5 7 8 9 8 8 8 8 9 9
5 4 5 5 6 6 5 6 6 6 5 4 4 4 4 3 5 3 4 5 4 4 0 2 2 4 6 7 7 6 7 9 8 8 8 8 9 4
6 5 5 6 7 7 8 5 5 5 5 5 6 5 4 4 3 3 2 3 4 4 1 2 2 3 4 7 8 7 6 7 7 7 9 9 8 7
7 6 5 7 8 8 7 7 7 7 6 7 7 6 6 5 4 3 2 2 2 3 1 1 2 2 6 8 8 9 8 7 5 5 4 7 8 8
6 6 8 8 8 7 7 8 7 6 6 7 7 7 6 6 4 3 2 2 1 1 2 2 2 1 2 4 8 9 10 8 7 6 5 4 3 3
8 8 9 9 8 8 7 6 6 6 6 7 7 6 6 6 5 4 3 3 3 2 1 1 1 1 2 1 4 8 8 10 8 6 5 4 2 2
10 10 10 10 10 8 8 8 7 6 6 6 7 6 7 7 6 4 4 4 4 4 2 0 -1 -1 -1 1 3 6 7 8 8 6 5 5 4 4
11 11 12 11 11 10 10 9 8 7 5 6 6 7 7 7 6 5 4 5 5 3 3 1 1 1 1 2 4 5 6 7 7 6 5 5 6 5
11 12 12 11 10 10 10 9 9 7 5 6 7 7 7 7 7 5 5 4 4 4 3 2 1 3 4 5 2 6 6 6 7 6 6 5 5 5
11 12 12 11 10 10 10 9 9 7 7 7 7 7 7 7 7 5 5 5 4 3 3 2 1 2 3 3 3 3 9 5 6 7 9 10 10 10
11 11 11 11 10 10 10 10 9 9 8 8 7 7 7 7 6 5 5 8 7 5 4 3 3 9 0 -0 3 6 5 8 5 7 8 8 8 8
11 12 11 11 11 10 10 9 10 8 8 8 7 7 7 6 6 6 5 6 5 5 4 3 2 1 1 2 3 6 8 8 9 9 10 9 7 8
11 12 11 11 11 11 10 10 10 10 9 8 7 7 6 6 6 6 5 5 5 5 5 5 4 2 2 2 6 7 8 8 7 9 10 10 9 9

GFSNE_con_lsi_288.txt.gz
Lid_Strength_Index
1 1 2 2 2 2 2 3 4 5 5 2 2 -1 -0 -1 -2 -2 -2 -0 -0 0 1 2 2 1 1 0 0 0 1 2 2 2 2 2 2 2
2 1 1 2 2 3 3 3 4 5 6 3 3 1 0 0 -1 -2 -2 -1 0 1 1 1 2 2 1 1 1 2 3 3 3 3 2 3 3 2
2 2 2 2 3 3 4 3 4 4 5 3 2 1 0 -0 -1 -2 -2 -2 -1 0 1 1 3 3 2 3 3 3 4 4 5 3 3 3 3 3
3 3 3 4 3 3 4 3 3 2 3 3 2 2 1 -0 -1 -1 -1 -1 -1 -0 1 2 3 4 4 4 5 4 5 5 5 4 4 4 4 4
3 3 4 4 4 4 3 3 3 3 3 3 4 2 1 0 -0 -1 -1 -1 -1 -1 1 2 3 4 4 5 5 5 6 7 6 5 5 5 5 5
3 3 4 4 4 4 4 3 3 3 3 3 3 3 2 0 0 1 1 -0 0 -1 -0 2 3 3 4 5 5 6 7 8 8 6 6 6 6 6
4 4 4 5 6 5 5 4 4 4 4 4 4 3 2 2 2 1 2 0 -0 -0 0 -0 0 3 4 5 5 6 7 8 8 7 7 8 8 8
5 4 4 5 5 7 7 7 7 5 5 4 4 3 2 2 2 2 2 2 3 -0 0 1 -0 1 3 5 5 7 7 7 8 7 7 8 8 9
5 5 5 5 5 4 5 5 5 5 5 4 4 3 3 3 2 2 2 3 3 1 0 2 -1 1 -0 3 6 7 8 8 8 7 8 8 9 9
6 6 5 4 3 4 4 4 4 3 3 4 3 3 3 3 2 3 3 3 2 1 -1 3 0 1 1 1 6 7 8 9 9 8 8 9 9 9
6 5 5 4 5 6 4 5 4 4 3 4 5 6 6 6 5 3 4 4 4 2 0 2 1 1 -0 2 5 7 8 9 9 9 9 9 9 9
6 5 5 5 6 6 5 5 6 5 5 5 5 4 4 4 5 2 3 4 3 3 -0 1 2 2 3 2 4 7 8 9 9 9 9 9 9 5
6 5 4 7 7 7 7 5 6 6 5 5 6 6 5 4 3 1 1 2 2 2 0 0 2 2 1 3 5 6 8 9 8 8 9 9 8 8
6 6 5 8 8 8 7 7 8 7 6 6 6 6 6 5 4 3 1 2 1 0 -0 -1 2 2 2 3 6 7 7 8 7 6 4 6 8 8
7 7 8 8 8 8 8 8 7 5 6 7 7 6 6 5 5 3 2 1 1 0 -0 -0 1 1 1 3 5 8 9 8 7 6 4 4 4 3
8 7 8 9 9 8 8 7 6 6 6 6 6 5 5 6 6 4 4 3 3 1 -1 -1 -0 1 2 1 2 7 8 9 8 7 6 3 3 2
10 8 8 7 7 7 7 7 7 6 8 6 6 6 6 6 6 4 4 4 4 4 3 1 -1 -1 0 1 3 6 7 8 8 7 5 4 3 2
9 8 8 8 9 9 9 9 8 8 8 7 6 5 6 6 6 5 5 4 4 4 3 2 1 1 1 1 2 3 6 7 7 7 6 5 5 2
8 7 9 9 10 10 9 9 9 9 7 7 6 6 6 6 6 6 6 5 4 4 3 2 1 2 4 5 1 4 4 6 7 7 5 5 4 4
8 9 9 9 9 10 10 9 9 9 8 8 7 7 6 6 7 7 6 5 4 4 3 1 1 2 3 3 3 2 8 6 7 7 8 8 9 10
9 9 8 9 9 9 10 10 9 9 9 8 7 7 7 6 7 6 6 8 7 4 4 3 2 8 0 0 3 4 4 8 6 6 8 7 6 6
9 9 8 9 9 10 10 10 10 9 9 8 8 7 7 6 7 6 6 5 4 4 4 4 1 2 1 2 4 3 6 8 9 10 10 9 6 6
10 9 9 9 10 10 10 10 10 9 9 9 8 7 6 7 6 6 5 5 5 4 4 4 3 2 1 1 3 4 7 8 7 8 10 10 9 9

GFSNE_con_lsi_291.txt.gz
Lid_Strength_Index
1 1 2 2 2 3 3 3 4 6 5 3 3 -1 0 0 -0 -1 -2 -1 -2 0 1 1 1 2 1 0 -0 -0 -0 -0 0 1 3 3 1 1
2 2 1 2 2 2 3 3 3 4 6 3 3 0 -1 0 -1 -1 -1 -1 -1 0 0 1 1 1 2 1 1 0 1 1 1 2 3 3 2 2
1 1 2 1 3 3 3 3 4 3 5 3 2 -0 -0 -1 -1 -1 -1 -2 -1 -1 -0 1 2 2 2 2 2 2 2 2 3 3 4 5 3 3
2 2 2 3 2 2 3 2 3 2 3 3 2 2 0 -1 -1 -1 0 0 -1 -0 -0 1 2 3 4 4 4 4 4 4 4 4 5 5 3 3
2 3 3 3 4 4 3 4 4 3 3 4 4 2 2 1 0 -1 -0 -1 -1 -1 0 1 2 3 4 5 5 5 6 6 6 5 5 5 4 4
3 3 4 4 4 4 5 5 4 5 4 4 4 4 3 1 2 3 2 1 0 -1 -1 1 1 2 4 4 4 5 6 7 7 7 7 6 5 5
4 4 4 5 6 6 6 6 6 7 6 6 6 5 5 5 5 3 3 2 0 -0 1 -0 -0 -0 2 4 4 5 6 7 7 7 7 7 7 7
5 4 4 4 5 6 6 7 6 6 6 7 7 7 5 5 3 4 4 3 4 -1 1 1 -0 0 -0 3 5 6 7 7 7 7 8 8 8 8
5 4 5 5 5 5 5 6 5 5 5 5 6 5 5 4 4 4 4 4 4 2 1 2 -0 0 -1 2 5 6 7 8 8 7 8 8 8 9
5 5 5 5 5 6 6 6 6 4 3 5 4 3 4 4 4 4 4 3 2 1 -0 3 0 1 -1 -1 4 5 7 8 8 8 8 9 9 9
6 5 5 6 7 8 6 7 5 4 4 5 5 5 6 6 6 5 5 5 5 3 0 1 1 1 1 1 1 4 7 8 9 8 9 9 9 9
6 5 8 8 10 9 6 5 6 5 5 4 4 4 4 4 5 4 4 5 4 4 -0 1 1 1 3 2 2 3 5 6 8 9 9 9 9 6
7 7 7 10 11 10 9 5 5 6 5 5 5 5 5 4 4 3 2 3 4 4 0 1 1 1 2 3 3 3 4 5 7 8 9 9 9 8
8 8 6 11 10 9 8 7 8 7 6 6 6 6 6 6 5 4 2 2 2 2 -0 -0 2 2 3 3 4 3 4 5 7 8 7 8 9 9
9 9 9 10 9 8 8 8 7 6 7 6 7 6 6 5 4 4 3 2 1 1 1 -0 0 1 1 3 3 4 4 5 7 7 7 6 6 5
8 8 8 9 9 8 8 7 6 6 6 7 6 5 5 5 5 5 5 4 4 3 1 -1 -1 0 1 2 2 3 5 6 7 7 6 6 4 3
10 8 7 6 6 6 6 6 7 7 7 7 6 6 6 6 5 5 5 5 5 4 3 2 -1 -1 -0 0 2 2 4 5 6 7 7 7 5 3
10 9 8 7 7 7 8 8 8 8 8 7 7 7 7 5 5 5 5 5 5 5 4 2 2 1 1 0 0 3 4 5 7 7 7 7 5 3
10 9 8 7 7 8 9 9 9 8 7 7 7 7 7 6 5 6 6 5 5 5 4 2 2 2 4 4 1 3 4 5 7 8 7 6 5 4
8 7 7 7 8 8 8 9 9 9 8 8 7 7 7 6 6 6 6 6 6 5 4 3 2 2 3 3 3 2 8 5 6 8 7 8 10 10
8 7 7 7 8 8 8 8 9 9 9 8 8 8 8 7 7 6 6 9 8 6 5 5 2 7 2 0 3 4 5 8 6 6 8 7 7 6
7 7 7 7 8 8 8 9 9 9 9 8 8 7 8 6 7 6 6 6 6 5 4 3 2 1 1 2 4 5 7 8 9 10 9 9 7 7
8 8 8 8 9 8 9 9 10 10 9 9 8 8 8 7 6 6 6 6 5 5 4 4 3 2 2 2 6 5 7 7 7 9 10 10 10 9